Skip Page Navigation
NASA JPL Caltech
NASA Logo - Jet Propulsion Laboratory + View the NASA Portal
+ Center for Near-Earth Object Studies
JPL Home Earth Solar System Stars & Galaxies Technology
JPL Solar System Dynamics
BODIES ORBITS EPHEMERIDES TOOLS PHYSICAL DATA DISCOVERY FAQ SITE MAP
JPL Small-Body Database Browser
Search: [ help ]  
43424 (2000 YF5)
Classification: Main-belt Asteroid          SPK-ID: 2043424
Ephemeris | Orbit Diagram | Orbital Elements | Mission Design | Physical Parameters | Discovery Circumstances ]

[ show orbit diagram ]
Orbital Elements at Epoch 2459200.5 (2020-Dec-17.0) TDB
Reference: JPL 21 (heliocentric ecliptic J2000)
 Element Value Uncertainty (1-sigma)   Units 
e .174730133747505 3.4539e-08  
a 2.33473216620125 1.0622e-08 au
q 1.926784102536303 8.016e-08 au
i 23.44738318070087 5.258e-06 deg
node 91.25705288513866 9.2183e-06 deg
peri 109.7059178914826 1.8307e-05 deg
M 130.2875877898165 1.4748e-05 deg
tp 2458728.920877907518
(2019-Sep-02.42087791)
5.2354e-05 TDB
period 1303.028836692936
3.57
8.8923e-06
2.435e-08
d
yr
n .2762793806725517 1.8854e-09 deg/d
Q 2.742680229866197 1.2478e-08 au
  Orbit Determination Parameters
   # obs. used (total)      947  
   data-arc span      23941 days (65.55 yr)  
   first obs. used      1955-03-01  
   last obs. used      2020-09-16  
   planetary ephem.      DE441  
   SB-pert. ephem.      SB441-N16  
   condition code      0  
   norm. resid. RMS      .48215  
   source      ORB  
   producer      Otto Matic  
   solution date      2021-Apr-13 09:19:56  

Additional Information
 Earth MOID = 1.02081 au 
 Jupiter MOID = 2.50271 au 
 T_jup = 3.439 
[ show covariance matrix ]

Ephemeris | Orbit Diagram | Orbital Elements | Mission Design | Physical Parameters | Discovery Circumstances ]

Physical Parameter Table
Parameter Symbol Value Units Sigma Reference Notes
absolute magnitude H 15.37   n/a E2021B10  
diameter diameter 3.650 km 0.414 urn:nasa:pds:neowise_diameters_albedos::2.0[mainbelt] (http://adsabs.harvard.edu/abs/2011ApJ...741...68M)  
geometric albedo albedo 0.159   0.039 urn:nasa:pds:neowise_diameters_albedos::2.0[mainbelt] (http://adsabs.harvard.edu/abs/2011ApJ...741...68M)  

43424 (2000 YF5)          Discovered 2000-Dec-20 by LINEAR at Socorro
Reference: 20020624/Numbers.arcLast Updated: 2004-04-19
Ephemeris | Orbit Diagram | Orbital Elements | Mission Design | Physical Parameters | Discovery Circumstances ]
ABOUT SSD CREDITS/AWARDS PRIVACY/COPYRIGHT GLOSSARY LINKS
FirstGov 2021-Jun-24 13:56 UT
(server date/time)  
NASA Home Page
Site Manager:   Ryan S. Park
Webmaster  Alan B. Chamberlin